Погода в Ерейментау

Казахстан     51°37′10″N   73°06′09″E
темп.,
°C
ветер,
м/с
пор.,
м/с
влажн.,
%
обл.,
%
осадки,
мм/ч
давл.,
гПа
погр.,
м
28 ноября, вс
вс2800:00−10юз818804 0.0 1039310
03:00−12юз716795 0.0 1040247
06:00−14юз513815 0.0 1041172
09:00−15ююз510824 0.0 1041125
12:00−11юз410805 0.0 1041170
15:00−9ююз37815 0.0 1039113
18:00−13ю33765 0.0 104021
21:00−13ююв32695 0.0 103911
29 ноября, пн
пн2900:00−13ююв22645 0.0 10389
03:00−12ююв336155 0.0 103611
06:00−12ююв3260100 0.0 103510
09:00−11ю226198 0.0 103410
12:00−8ю226943 0.0 103314
15:00−8ююз227334 0.0 103211
18:00−10ю3265100 0.0 103210
21:00−10ю2261100 0.0 103110
30 ноября, вт
вт3000:00−10ю2265100 0.0 103010
03:00−11ю3369100 0.0 103016
06:00−10ююз3468100 0.0 102937
09:00−10ююз3371100 0.0 102930
12:00−6ююз4873100 0.0 1028132
15:00−5ююз5117797 0.0 1027229
18:00−9ююз410835 0.0 1028118
21:00−11ююз47875 0.0 102879
1 декабря, ср
ср100:00−11ююз49855 0.0 102889
03:00−10ююз48824 0.0 102886
06:00−10ююз37802 0.0 102678
09:00−10ююз49802 0.0 102795
12:00−6ююз512770 0.0 1026192
15:00−5ююз512770 0.0 1024192
18:00−7ю511744 0.0 1024116
21:00−8ююз487685 0.0 102482
2 декабря, чт
чт200:00−6ю4973100 0.0 102294
03:00−7ю487457 0.0 102161
06:00−3ю5136748 0.0 1019145
09:00−2ю61563100 0.0 1018200
12:00+1ююз71862100 0.0 1016298
15:00+2ююз71865100 0.0 1014351
18:00+3ю81765100 0.0 1012295
21:00+4ююз102163100 0.0 1010445